Tracking 27380 objects as of 7-Jun-2023
HD Live streaming from Space Station
objects crossing your sky now

SL-24 R/B

Track SL-24 R/B now!
10-day predictions


NORAD ID: 40047
Int'l Code: 2014-033AP
Perigee: 615.2 km
Apogee: 1,459.2 km
Inclination: 97.9 °
Period: 105.8 minutes
Semi major axis: 7408 km
RCS: Unknown
Launch date: June 19, 2014
Source: Commonwealth of Independent States (former USSR) (CIS)
Launch site: Orenburg, Russia (OREN)

Note: This is a ROCKET BODY
Your satellite tracking list
Your tracking list is empty




NASA's NSSDC Master Catalog

Two Line Element Set (TLE):
1 40047U 14033AP  23157.15376893  .00000074  00000-0  47525-4 0  9994
2 40047  97.8725 206.3690 0569660  28.9230 334.2263 13.61543299445387
Source of the keplerian elements: AFSPC